1508972400.92,22541,11.81,74092.8,0.33,-28.37,-31.33,0,*41
1508972402.15,22542,11.81,74090.3,0.33,-28.47,-31.33,0,*45
1508972403.38,22543,11.81,74092.5,0.33,-28.37,-31.45,0,*42
1508972404.6,22544,11.81,74090.3,0.31,-28.47,-31.45,0,*40
1508972405.85,22545,11.81,74088.3,0.29,-28.53,-31.51,0,*48
1508972407.07,22546,11.81,74092.5,0.31,-28.53,-31.51,0,*42
1508972408.29,22547,11.81,74090.5,0.31,-28.47,-31.45,0,*43
1508972409.56,22548,11.81,74094.8,0.29,-28.43,-31.51,0,*44
1508972410.83,22549,11.81,74102.0,0.29,-28.43,-31.51,0,*45
1508972412.08,22550,11.81,74104.8,0.29,-28.53,-31.51,0,*4C
1508972413.3,22551,11.81,74106.8,0.27,-28.53,-31.57,0,*45
1508972414.49,22552,11.81,74106.0,0.23,-28.31,-31.33,0,*44
1508972415.71,22553,11.81,74100.5,0.27,-27.99,-31.01,0,*4D
1508972416.91,22554,11.81,74098.0,0.23,-27.71,-30.83,0,*43
1508972418.15,22555,11.81,74078.8,0.23,-27.61,-30.67,0,*49
1508972419.38,22556,11.81,74082.5,0.27,-27.55,-30.61,0,*4F
1508972420.61,22557,11.81,74084.3,0.27,-27.83,-30.83,0,*49
1508972421.83,22558,11.81,74080.5,0.23,-28.09,-31.17,0,*43
1508972423.05,22559,11.81,74082.8,0.27,-28.09,-31.29,0,*4B
1508972424.25,22560,11.81,74088.3,0.23,-28.31,-31.45,0,*44
1508972425.48,22561,11.81,74088.3,0.23,-28.31,-31.39,0,*4E
1508972426.73,22562,11.81,74090.8,0.23,-28.25,-31.39,0,*48
1508972427.98,22563,11.81,74086.3,0.23,-28.25,-31.39,0,*49
1508972429.2,22564,11.81,74084.0,0.23,-28.25,-31.33,0,*44
1508972430.43,22565,11.81,74084.0,0.23,-28.25,-31.33,0,*45
1508972431.65,22566,11.81,74088.8,0.23,-28.43,-31.45,0,*47
1508972432.89,22567,11.81,74086.3,0.23,-28.47,-31.57,0,*41
1508972434.13,22568,11.81,74086.8,0.23,-28.47,-31.61,0,*4B
1508972435.38,22569,11.81,74088.3,0.21,-28.63,-31.67,0,*48
1508972436.6,22570,11.81,74084.3,0.21,-28.53,-31.67,0,*43
1508972437.79,22571,11.81,74086.3,0.19,-28.53,-31.67,0,*49
1508972438.99,22572,11.81,74080.3,0.19,-28.53,-31.67,0,*4A
1508972440.21,22573,11.81,74084.3,0.19,-28.63,-31.67,0,*48
1508972441.41,22574,11.81,74086.3,0.19,-28.53,-31.67,0,*4C
1508972442.63,22575,11.81,74090.0,0.19,-28.63,-31.79,0,*41
1508972443.87,22576,11.81,74092.0,0.17,-28.69,-31.73,0,*4C
1508972445.11,22577,11.81,74090.3,0.17,-28.59,-31.67,0,*4B
1508972446.33,22578,11.81,74086.8,0.19,-28.53,-31.61,0,*46
1508972447.55,22579,11.81,74082.3,0.17,-28.53,-31.67,0,*4F
1508972448.79,22580,11.81,74078.0,0.17,-28.69,-31.73,0,*45
1508972450.05,22581,11.81,74086.0,0.17,-28.59,-31.73,0,*47
1508972451.31,22582,11.81,74092.5,0.17,-28.43,-31.57,0,*49
1508972452.59,22583,11.81,74078.5,0.17,-28.25,-31.51,0,*4E
1508972453.8,22584,11.81,74068.3,0.15,-28.43,-31.67,0,*4E
1508972455.04,22585,11.81,74068.0,0.17,-28.53,-31.73,0,*49
1508972456.28,22586,11.81,74082.5,0.17,-28.69,-31.73,0,*43
1508972457.51,22587,11.81,74084.3,0.15,-28.69,-31.91,0,*4C
1508972458.75,22588,11.81,74084.0,0.15,-28.59,-31.85,0,*45
1508972460.0,22589,11.81,74098.5,0.15,-28.59,-31.85,0,*44
1508972461.22,22590,11.81,74098.5,0.15,-28.69,-31.85,0,*4F
1508972462.5,22591,11.81,74098.3,0.13,-28.75,-31.95,0,*44
1508972463.77,22592,11.81,74108.5,0.13,-28.75,-31.95,0,*47
1508972465.05,22593,11.81,74104.3,0.13,-28.79,-31.95,0,*4A
1508972466.32,22594,11.81,74110.0,0.13,-28.43,-31.51,0,*4C
1508972467.58,22595,11.81,74108.8,0.13,-27.61,-30.83,0,*4C
1508972468.83,22596,11.81,74104.3,0.13,-27.19,-30.45,0,*4A
1508972470.08,22597,11.81,74106.0,0.13,-26.93,-30.27,0,*4C
1508972471.32,22598,11.81,74100.0,0.13,-26.93,-30.11,0,*46
1508972472.6,22599,11.81,74098.0,0.17,-26.17,-29.35,0,*41
1508972473.85,22600,11.81,74098.8,0.17,-26.65,-29.89,0,*40
1508972475.06,22601,11.81,74090.0,0.17,-27.13,-30.45,0,*49
1508972476.33,22602,11.81,74080.3,0.17,-27.35,-30.51,0,*4B
1508972477.57,22603,11.81,74076.0,0.17,-27.39,-30.45,0,*43
1508972478.8,22604,11.81,74074.5,0.19,-27.29,-30.39,0,*40
1508972480.0,22605,11.81,74080.3,0.19,-27.29,-30.45,0,*4A
1508972481.2,22606,11.81,74082.5,0.19,-27.29,-30.45,0,*49
1508972482.4,22607,11.81,74088.8,0.19,-27.67,-31.05,0,*47
1508972483.68,22608,11.81,74096.3,0.21,-27.61,-30.95,0,*4D
1508972484.91,22609,11.81,74106.3,0.19,-27.77,-30.89,0,*4D
1508972486.15,22610,11.81,74110.5,0.19,-27.83,-31.23,0,*4F
1508972487.38,22611,11.81,74114.0,0.23,-28.25,-31.45,0,*44
1508972488.65,22612,11.81,74120.0,0.21,-28.47,-31.51,0,*44
1508972489.85,22613,11.81,74114.8,0.19,-28.53,-31.67,0,*4E
1508972491.07,22614,11.81,74112.5,0.19,-28.63,-31.67,0,*4A
1508972492.28,22615,11.81,74112.3,0.19,-28.47,-31.67,0,*4D
1508972493.51,22616,11.81,74104.0,0.19,-28.37,-31.61,0,*4F
1508972494.75,22617,11.81,74104.3,0.17,-27.89,-31.11,0,*4D
1508972496.0,22618,11.81,74096.3,0.17,-28.21,-31.45,0,*4E
1508972497.27,22619,11.81,74088.5,0.17,-28.21,-31.51,0,*4A
1508972498.49,22620,11.81,74092.3,0.15,-28.37,-31.57,0,*43
1508972499.71,22621,11.81,74094.5,0.17,-28.37,-31.67,0,*43
1508972500.91,22622,11.81,74094.0,0.15,-28.53,-31.67,0,*40
1508972502.17,22623,11.81,74094.8,0.17,-28.59,-31.73,0,*4C
1508972503.39,22624,11.81,74100.5,0.15,-28.59,-31.67,0,*4C
1508972504.61,22625,11.81,74098.0,0.15,-28.37,-31.57,0,*46
1508972505.83,22626,11.81,74102.3,0.15,-28.43,-31.67,0,*45
1508972507.06,22627,11.81,74106.8,0.15,-28.25,-31.45,0,*44
1508972508.31,22628,11.81,74102.8,0.15,-27.83,-31.11,0,*49
1508972509.5,22629,11.81,74104.0,0.15,-28.15,-31.33,0,*48
1508972510.73,22630,11.81,74104.3,0.15,-28.37,-31.51,0,*44
1508972511.95,22631,11.81,74100.3,0.15,-28.37,-31.51,0,*45
1508972513.17,22632,11.81,74100.5,0.15,-28.37,-31.57,0,*40
1508972514.41,22633,11.81,74104.0,0.15,-28.43,-31.57,0,*42
1508972515.69,22634,11.81,74100.0,0.13,-28.47,-31.61,0,*42
1508972516.93,22635,11.81,74102.0,0.13,-28.31,-31.57,0,*47
1508972518.17,22636,11.81,74102.0,0.13,-28.31,-31.57,0,*44
1508972519.44,22637,11.81,74106.3,0.13,-28.59,-31.73,0,*4D
1508972520.72,22638,11.81,74104.5,0.13,-28.63,-31.91,0,*47
1508972521.98,22639,11.81,74104.8,0.11,-28.75,-31.95,0,*47
1508972523.22,22640,11.81,74110.5,0.11,-28.47,-31.79,0,*4A
1508972524.48,22641,11.81,74106.8,0.13,-28.43,-31.57,0,*41
1508972525.72,22642,11.81,74106.3,0.11,-28.31,-31.57,0,*45
1508972526.99,22643,11.81,74104.5,0.11,-28.21,-31.51,0,*43
1508972528.26,22644,11.81,74108.5,0.11,-28.21,-31.39,0,*4A
1508972529.54,22645,11.81,74104.3,0.13,-28.09,-31.23,0,*48
1508972530.78,22646,11.81,74102.0,0.11,-28.59,-31.79,0,*43
1508972532.05,22647,11.81,74096.5,0.11,-28.75,-31.95,0,*4E
1508972533.33,22648,11.81,74098.8,0.11,-28.91,-32.07,0,*43
1508972534.57,22649,11.81,74096.0,0.09,-28.79,-31.95,0,*75
1508972535.81,22650,11.81,74090.3,0.11,-28.63,-31.79,0,*4D
1508972537.05,22651,11.81,74086.8,0.11,-28.75,-31.79,0,*4B
1508972538.31,22652,11.81,74082.3,0.11,-28.47,-31.61,0,*40
1508972539.55,22653,11.81,74084.0,0.11,-28.59,-31.79,0,*47
1508972540.79,22654,11.81,74090.3,0.11,-28.63,-31.79,0,*49
1508972542.03,22655,11.81,74084.0,0.11,-28.63,-31.79,0,*48
1508972543.25,22656,11.81,74086.0,0.09,-28.69,-31.95,0,*7A
1508972544.47,22657,11.81,74084.0,0.09,-28.69,-31.95,0,*7B
1508972545.71,22658,11.81,74092.3,0.07,-28.69,-31.85,0,*7B
1508972546.92,22659,11.81,74090.5,0.09,-28.79,-32.01,0,*7A
1508972548.13,22660,11.81,74090.8,0.09,-28.97,-32.19,0,*79
1508972549.37,22661,11.81,74090.0,0.09,-29.13,-32.29,0,*76
1508972550.63,22662,11.81,74088.0,0.07,-29.13,-32.29,0,*7B
1508972551.87,22663,11.81,74090.3,0.07,-29.01,-32.13,0,*70
1508972553.14,22664,11.81,74090.8,0.07,-29.01,-32.29,0,*7E
1508972554.4,22665,11.81,74094.5,0.07,-29.17,-32.29,0,*78
1508972555.62,22666,11.81,74098.3,0.05,-29.35,-32.39,0,*78
1508972556.85,22667,11.81,74098.0,0.05,-29.35,-32.51,0,*77
1508972558.06,22668,11.81,74100.3,0.01,-29.29,-32.39,0,*7F
1508972559.28,22669,11.81,74102.5,0.01,-29.29,-32.39,0,*7E
1508972560.49,22670,11.81,74100.8,0.01,-28.97,-32.07,0,*7F
1508972561.73,22671,11.81,74104.5,0.01,-28.75,-31.73,0,*72
1508972562.97,22672,11.81,74108.0,0.01,-28.21,-31.39,0,*7E
1508972564.18,22673,11.81,74100.8,0.05,-28.43,-31.33,0,*75
1508972565.42,22674,11.81,74096.3,0.01,-28.21,-31.23,0,*73
1508972566.64,22675,11.81,74090.0,0.01,-28.09,-31.17,0,*7F
1508972567.85,22676,11.81,74086.3,0.05,-28.21,-31.33,0,*74
1508972569.07,22677,11.81,74092.0,0.05,-28.21,-31.29,0,*7E
1508972570.27,22678,11.81,74104.5,0.05,-28.37,-31.45,0,*7C
1508972571.45,22679,11.81,74110.0,0.05,-28.69,-31.67,0,*76
1508972572.66,22680,11.81,74114.3,0.05,-28.59,-31.67,0,*73
1508972573.87,22681,11.81,74104.5,0.05,-28.59,-31.67,0,*72
1508972575.12,22682,11.81,74104.8,0.05,-28.91,-31.91,0,*7C
1508972576.36,22683,11.81,74114.8,0.05,-28.91,-31.91,0,*7D
1508972577.6,22684,11.81,74112.0,0.05,-28.91,-31.73,0,*76
1508972578.79,22685,11.81,74106.0,0.05,-28.85,-32.01,0,*74
1508972579.98,22686,11.81,74100.8,0.01,-29.07,-32.13,0,*7B
1508972581.16,22687,11.81,74102.3,0.01,-29.23,-32.23,0,*7F
1508972582.38,22688,11.81,74100.5,-0.01,-29.23,-32.23,0,*5D
1508972583.59,22689,11.81,74096.8,0.01,-29.13,-32.13,0,*71
1508972584.81,22690,11.81,74098.8,0.01,-28.97,-31.95,0,*79
1508972586.06,22691,11.81,74096.5,-0.01,-29.07,-31.95,0,*5D
1508972587.31,22692,11.81,74096.8,-0.01,-29.07,-31.95,0,*5E
1508972588.53,22693,11.81,74106.0,-0.01,-28.97,-31.79,0,*55
1508972589.8,22694,11.81,74106.5,-0.01,-28.75,-31.51,0,*54
1508972591.03,22695,11.81,74108.3,-0.01,-27.93,-30.83,0,*5C
1508972592.28,22696,11.81,74110.8,-0.01,-27.93,-30.89,0,*55
1508972593.5,22697,11.81,74100.3,0.01,-27.77,-30.73,0,*76
1508972594.75,22698,11.81,74096.3,-0.01,-27.89,-30.73,0,*55
1508972595.97,22699,11.81,74092.3,0.01,-28.09,-31.17,0,*7D
1508972597.15,22700,11.81,74090.3,0.05,-28.31,-31.29,0,*7E
1508972598.37,22701,11.81,74088.5,0.05,-28.69,-31.61,0,*7E
1508972599.61,22702,11.81,74090.5,0.01,-28.91,-31.73,0,*7D
1508972600.85,22703,11.81,74092.8,0.01,-28.63,-31.39,0,*7F
1508972602.04,22704,11.81,74094.8,0.01,-28.37,-31.33,0,*73
1508972603.22,22705,11.81,74090.3,0.05,-28.15,-31.01,0,*77
1508972604.46,22706,11.81,74094.0,0.05,-28.59,-31.39,0,*77
1508972605.68,22707,11.81,74090.0,0.05,-28.69,-31.61,0,*78
1508972606.95,22708,11.81,74088.8,0.07,-28.79,-31.61,0,*74
1508972608.19,22709,11.81,74078.8,0.05,-28.91,-31.73,0,*72
1508972609.37,22710,11.81,74078.5,0.01,-28.97,-31.79,0,*72
1508972610.61,22711,11.81,74084.8,0.01,-29.13,-31.95,0,*7C
1508972611.85,22712,11.81,74080.5,0.05,-29.17,-31.91,0,*7B
1508972613.06,22713,11.81,74080.8,0.05,-29.17,-32.01,0,*70
1508972614.3,22714,11.81,74082.5,0.05,-28.91,-31.85,0,*77
1508972615.49,22715,11.81,74082.3,0.01,-29.07,-31.79,0,*7F
1508972616.7,22716,11.81,74084.5,0.05,-29.23,-31.91,0,*78
1508972617.94,22717,11.81,74076.3,0.07,-29.29,-32.13,0,*78
1508972619.14,22718,11.81,74074.3,0.01,-29.57,-32.39,0,*70
1508972620.35,22719,11.81,74078.0,0.01,-29.67,-32.45,0,*79
1508972621.57,22720,11.81,74082.0,0.01,-29.67,-32.45,0,*73
1508972622.79,22721,11.81,74074.0,0.01,-29.67,-32.45,0,*72
1508972624.01,22722,11.81,74084.3,-0.01,-29.83,-32.57,0,*55
1508972625.23,22723,11.81,74090.5,-0.01,-29.79,-32.39,0,*59
1508972626.45,22724,11.81,74096.8,-0.03,-29.79,-32.45,0,*57
1508972627.67,22725,11.81,74102.0,-0.03,-29.51,-32.35,0,*5B
1508972628.89,22726,11.81,74098.5,-0.03,-29.45,-32.29,0,*50
1508972630.12,22727,11.81,74104.5,-0.03,-29.39,-32.13,0,*53
1508972631.34,22728,11.81,74098.8,-0.03,-29.45,-32.19,0,*5D
1508972632.56,22729,11.81,74102.5,-0.03,-29.73,-32.35,0,*57
1508972633.79,22730,11.81,74112.3,-0.05,-29.83,-32.51,0,*54
1508972635.01,22731,11.81,74102.5,-0.01,-29.61,-32.23,0,*58
1508972636.26,22732,11.81,74098.0,-0.03,-29.73,-32.45,0,*5A
1508972637.48,22733,11.81,74100.5,-0.03,-29.73,-32.51,0,*5E
1508972638.7,22734,11.81,74102.0,-0.07,-29.73,-32.39,0,*53
1508972639.92,22735,11.81,74102.5,-0.03,-29.67,-32.29,0,*52
1508972641.16,22736,11.81,74102.3,-0.07,-29.17,-31.85,0,*57
1508972642.41,22737,11.81,74094.5,-0.05,-28.85,-31.57,0,*51
1508972643.68,22738,11.81,74094.5,-0.05,-29.01,-31.73,0,*55
1508972644.87,22739,11.81,74092.0,-0.07,-29.07,-31.67,0,*55
1508972646.12,22740,11.81,74092.0,-0.05,-28.97,-31.61,0,*57
1508972647.37,22741,11.81,74092.8,-0.07,-29.01,-31.61,0,*5A
1508972648.57,22742,11.81,74088.0,-0.07,-28.85,-31.33,0,*53
1508972649.81,22743,11.81,74084.3,-0.05,-28.97,-31.57,0,*51
1508972651.06,22744,11.81,74078.0,-0.05,-28.15,-30.77,0,*5F
1508972652.29,22745,11.81,74086.3,-0.03,-28.09,-30.67,0,*54
1508972653.52,22746,11.81,74082.8,-0.03,-28.79,-31.45,0,*51
1508972654.76,22747,11.81,74086.3,-0.01,-29.07,-31.73,0,*5F
1508972656.0,22748,11.81,74096.3,-0.03,-29.29,-31.95,0,*56
1508972657.2,22749,11.81,74090.3,-0.03,-29.45,-32.01,0,*53
1508972658.42,22750,11.81,74092.8,-0.03,-29.61,-32.19,0,*54
1508972659.65,22751,11.81,74088.0,-0.01,-29.57,-32.13,0,*58
1508972660.84,22752,11.81,74088.0,-0.03,-29.61,-32.13,0,*5C
1508972662.06,22753,11.81,74078.3,-0.03,-29.73,-32.35,0,*5A
1508972663.28,22754,11.81,74066.8,-0.03,-29.67,-32.19,0,*56
1508972664.54,22755,11.81,74070.3,-0.05,-29.67,-32.19,0,*51
1508972665.76,22756,11.81,74074.0,-0.05,-29.67,-32.13,0,*58
1508972667.0,22757,11.81,74080.0,-0.05,-29.73,-32.35,0,*58
1508972668.25,22758,11.81,74086.3,-0.05,-29.89,-32.35,0,*52
1508972669.47,22759,11.81,74086.8,-0.07,-29.89,-32.35,0,*51
1508972670.69,22760,11.81,74084.0,-0.07,-29.73,-32.35,0,*5E
1508972671.9,22761,11.81,74084.8,-0.07,-29.79,-32.51,0,*57
1508972673.12,22762,11.81,74090.8,-0.07,-29.89,-32.39,0,*55
1508972674.35,22763,11.81,74094.0,-0.07,-29.89,-32.39,0,*54
1508972675.59,22764,11.81,74086.8,-0.09,-30.01,-32.57,0,*5D
1508972676.82,22765,11.81,74078.3,-0.09,-29.95,-32.57,0,*59
1508972678.05,22766,11.81,74092.3,-0.09,-30.01,-32.57,0,*5F
1508972679.31,22767,11.81,74084.3,-0.09,-29.95,-32.45,0,*58
1508972680.54,22768,11.81,74084.0,-0.09,-29.83,-32.39,0,*5B
1508972681.75,22769,11.81,74092.0,-0.11,-29.83,-32.39,0,*63
1508972682.98,22770,11.81,74090.0,-0.09,-29.83,-32.39,0,*52
1508972684.2,22771,11.81,74086.5,-0.11,-29.79,-32.29,0,*6E
1508972685.4,22772,11.81,74084.0,-0.11,-29.83,-32.39,0,*69
1508972686.61,22773,11.81,74072.0,-0.11,-29.83,-32.39,0,*68
1508972687.83,22774,11.81,74064.8,-0.11,-30.01,-32.57,0,*65
1508972689.03,22775,11.81,74062.0,-0.11,-29.95,-32.57,0,*61
1508972690.3,22776,11.81,74062.3,-0.13,-30.01,-32.63,0,*62
1508972691.56,22777,11.81,74064.5,-0.13,-30.05,-32.51,0,*66
1508972692.81,22778,11.81,74064.5,-0.13,-30.05,-32.51,0,*69
1508972694.04,22779,11.81,74058.8,-0.15,-30.05,-32.51,0,*6E
1508972695.32,22780,11.81,74054.3,-0.13,-30.05,-32.63,0,*6F
1508972696.57,22781,11.81,74048.3,-0.15,-30.01,-32.63,0,*6C
1508972697.8,22782,11.81,74060.3,-0.17,-30.11,-32.69,0,*66
1508972699.03,22783,11.81,74062.3,-0.17,-30.23,-32.69,0,*66
1508972700.29,22784,11.81,74066.8,-0.17,-30.23,-32.75,0,*6C
1508972701.55,22785,11.81,74072.3,-0.17,-30.23,-32.75,0,*6D
1508972702.82,22786,11.81,74076.3,-0.17,-30.27,-32.75,0,*6A
1508972704.05,22787,11.81,74086.3,-0.17,-30.23,-32.69,0,*62
1508972705.25,22788,11.81,74088.3,-0.21,-30.23,-32.69,0,*68
1508972706.48,22789,11.81,74080.8,-0.17,-30.23,-32.69,0,*6C
1508972707.74,22790,11.81,74076.3,-0.17,-30.11,-32.75,0,*68
1508972708.94,22791,11.81,74094.3,-0.21,-30.23,-32.69,0,*60
1508972710.17,22792,11.81,74086.5,-0.21,-30.23,-32.75,0,*6E
1508972711.44,22793,11.81,74094.3,-0.23,-30.17,-32.63,0,*6D
1508972712.7,22794,11.81,74096.3,-0.25,-30.17,-32.75,0,*6B
1508972713.96,22795,11.81,74098.3,-0.25,-30.17,-32.75,0,*6A
1508972715.19,22796,11.81,74106.5,-0.25,-30.11,-32.63,0,*68
1508972716.39,22797,11.81,74098.3,-0.25,-29.79,-32.23,0,*6B
1508972717.66,22798,11.81,74090.3,-0.23,-29.29,-31.85,0,*68
1508972718.87,22799,11.81,74084.5,-0.25,-29.61,-32.13,0,*6F
1508972720.12,22800,11.81,74072.8,-0.23,-29.73,-32.39,0,*6D
1508972721.37,22801,11.81,74052.5,-0.25,-30.01,-32.63,0,*68
1508972722.59,22802,11.81,74050.5,-0.25,-30.33,-32.97,0,*61
1508972723.81,22803,11.81,74058.0,-0.25,-30.45,-32.97,0,*61
1508972725.03,22804,11.81,74064.3,-0.25,-30.45,-32.97,0,*66
1508972726.25,22805,11.81,74062.5,-0.29,-30.33,-32.97,0,*6A
1508972727.48,22806,11.88,74070.8,-0.29,-30.33,-32.85,0,*6A
1508972728.73,22807,11.81,74056.0,-0.27,-30.33,-32.85,0,*65
1508972729.96,22808,11.81,74062.8,-0.29,-30.33,-32.85,0,*64
1508972731.19,22809,11.81,74064.3,-0.29,-30.33,-32.85,0,*65
1508972732.41,22810,11.88,74060.3,-0.29,-30.39,-33.03,0,*68
1508972733.65,22811,11.81,74050.3,-0.29,-30.39,-32.97,0,*65
1508972734.91,22812,11.81,74042.8,-0.31,-30.27,-32.85,0,*63
1508972736.16,22813,11.81,74046.0,-0.31,-30.27,-32.85,0,*62
1508972737.44,22814,11.81,74036.3,-0.31,-30.39,-32.85,0,*6A
1508972738.69,22815,11.81,74046.0,-0.31,-30.45,-32.85,0,*60
1508972739.94,22816,11.88,74058.0,-0.33,-30.51,-33.09,0,*61
1508972741.19,22817,11.88,74058.8,-0.33,-30.51,-33.09,0,*60
1508972742.41,22818,11.81,74068.5,-0.33,-30.45,-33.09,0,*6A
1508972743.63,22819,11.81,74076.8,-0.33,-30.45,-32.97,0,*6D
1508972744.87,22820,11.81,74082.5,-0.35,-30.45,-32.97,0,*61
1508972746.12,22821,11.81,74088.5,-0.35,-30.45,-32.97,0,*60
1508972747.36,22822,11.81,74082.0,-0.35,-30.45,-32.97,0,*63
1508972748.58,22823,11.81,74088.0,-0.37,-30.23,-32.79,0,*60
1508972749.81,22824,11.88,74090.5,-0.37,-30.11,-32.63,0,*6D
1508972751.04,22825,11.81,74078.3,-0.37,-29.95,-32.45,0,*6C
1508972752.26,22826,11.88,74078.0,-0.37,-30.01,-32.35,0,*6D
1508972753.48,22827,11.81,74074.5,-0.37,-29.79,-32.29,0,*66
1508972754.73,22828,11.81,74064.8,-0.35,-29.07,-31.57,0,*68
1508972755.99,22829,11.88,74068.8,-0.37,-28.75,-31.23,0,*6C
1508972757.24,22830,11.88,74054.8,-0.35,-27.35,-29.57,0,*67
1508972758.46,22831,11.81,74042.8,-0.33,-26.87,-29.13,0,*68
1508972759.73,22832,11.81,74038.0,-0.31,-26.13,-28.47,0,*64
1508972760.99,22833,11.88,74048.8,-0.29,-27.61,-30.05,0,*67
1508972762.27,22834,11.81,74060.3,-0.27,-28.63,-31.23,0,*66
1508972763.5,22835,11.81,74068.0,-0.25,-28.97,-31.57,0,*6D
1508972764.78,22836,11.88,74068.3,-0.27,-29.35,-31.91,0,*6F
1508972766.04,22837,11.88,74076.8,-0.27,-29.45,-32.07,0,*65
1508972767.26,22838,11.81,74076.8,-0.27,-29.61,-32.13,0,*69
1508972768.49,22839,11.81,74078.8,-0.27,-29.61,-32.35,0,*6C
1508972769.69,22840,11.88,74084.0,-0.29,-29.79,-32.35,0,*65
1508972770.92,22841,11.81,74090.0,-0.29,-29.95,-32.45,0,*61
1508972772.13,22842,11.88,74086.0,-0.29,-29.95,-32.51,0,*67
1508972773.39,22843,11.81,74086.3,-0.31,-30.05,-32.51,0,*6E
1508972774.59,22844,11.81,74086.5,-0.33,-30.11,-32.57,0,*68
1508972775.81,22845,11.81,74086.8,-0.33,-29.79,-32.29,0,*66
1508972777.02,22846,11.81,74082.5,-0.33,-29.45,-32.01,0,*60
1508972778.29,22847,11.81,74070.8,-0.31,-28.47,-31.11,0,*62
1508972779.55,22848,11.88,74072.0,-0.31,-28.63,-31.17,0,*6D
1508972780.83,22849,11.81,74084.5,-0.31,-29.17,-31.85,0,*65
1508972782.06,22850,11.81,74078.3,-0.31,-28.53,-31.05,0,*64
1508972783.33,22851,11.88,74068.0,-0.31,-27.83,-30.39,0,*69
1508972784.56,22852,11.88,74052.5,-0.29,-28.75,-31.29,0,*65
1508972785.81,22853,11.88,74054.5,-0.29,-29.13,-31.73,0,*6A
1508972787.07,22854,11.88,74054.3,-0.29,-29.29,-31.95,0,*6C
1508972788.32,22855,11.81,74060.3,-0.27,-29.51,-32.13,0,*61
1508972789.55,22856,11.81,74054.8,-0.27,-29.61,-32.13,0,*61
1508972790.77,22857,11.88,74038.0,-0.29,-29.61,-32.29,0,*67
1508972791.98,22858,11.88,74046.8,-0.29,-29.67,-32.35,0,*63
1508972793.22,22859,11.88,74064.0,-0.31,-29.83,-32.39,0,*6D
1508972794.47,22860,11.81,74070.8,-0.31,-29.73,-32.35,0,*64
1508972795.72,22861,11.88,74082.3,-0.31,-29.73,-32.39,0,*69
1508972796.93,22862,11.81,74068.3,-0.33,-29.95,-32.39,0,*60
1508972798.13,22863,11.81,74064.8,-0.33,-29.79,-32.57,0,*6B
1508972799.36,22864,11.81,74064.3,-0.31,-29.83,-32.39,0,*63
1508972800.57,22865,11.81,74062.5,-0.33,-29.79,-32.39,0,*65
1508972801.8,22866,11.88,74068.5,-0.33,-29.79,-32.45,0,*6D
1508972803.06,22867,11.81,74074.3,-0.33,-29.89,-32.45,0,*63
1508972804.29,22868,11.88,74076.0,-0.33,-29.95,-32.63,0,*65
1508972805.52,22869,11.81,74072.0,-0.33,-29.89,-32.57,0,*6E
1508972806.8,22870,11.88,74076.3,-0.35,-30.05,-32.63,0,*6B
1508972808.06,22871,11.81,74074.5,-0.35,-29.89,-32.39,0,*69
1508972809.31,22872,11.88,74074.5,-0.35,-29.61,-32.29,0,*6D
1508972810.54,22873,11.88,74068.0,-0.37,-29.95,-32.63,0,*6B
1508972811.76,22874,11.88,74064.3,-0.37,-30.01,-32.69,0,*63
1508972812.99,22875,11.81,74066.0,-0.37,-30.11,-32.79,0,*62
1508972814.2,22876,11.81,74064.0,-0.37,-30.11,-32.69,0,*60
1508972815.43,22877,11.81,74064.5,-0.39,-30.11,-32.69,0,*6F
1508972816.68,22878,11.88,74068.5,-0.39,-30.11,-32.85,0,*62
1508972817.96,22879,11.88,74068.3,-0.39,-30.17,-32.79,0,*66
1508972819.24,22880,11.88,74068.0,-0.39,-30.17,-32.85,0,*63
1508972820.49,22881,11.88,74070.5,-0.43,-30.23,-32.85,0,*68
1508972821.72,22882,11.88,74072.0,-0.43,-30.27,-33.03,0,*60
1508972822.97,22883,11.88,74072.0,-0.43,-30.23,-32.85,0,*6A
1508972824.19,22884,11.88,74070.0,-0.43,-30.23,-32.91,0,*68
1508972825.41,22885,11.81,74066.0,-0.43,-30.23,-32.91,0,*69
1508972826.64,22886,11.88,74066.3,-0.45,-30.33,-33.09,0,*6D
1508972827.89,22887,11.81,74068.8,-0.47,-30.27,-33.09,0,*6B
1508972829.14,22888,11.88,74088.3,-0.47,-30.27,-32.97,0,*62
1508972830.36,22889,11.88,74092.3,-0.49,-30.39,-33.15,0,*69
1508972831.63,22890,11.88,74090.0,-0.47,-30.51,-33.27,0,*60
1508972832.88,22891,11.88,74092.8,-0.47,-30.45,-33.09,0,*68
1508972834.08,22892,11.88,74090.3,-0.49,-30.33,-33.03,0,*6E
1508972835.3,22893,11.88,74092.0,-0.49,-30.39,-33.03,0,*65
1508972836.52,22894,11.88,74078.8,-0.49,-30.39,-33.03,0,*62
1508972837.77,22895,11.88,74076.3,-0.51,-30.55,-33.21,0,*60
1508972838.99,22896,11.88,74078.8,-0.49,-30.51,-33.15,0,*69
1508972840.24,22897,11.88,74084.8,-0.51,-30.33,-32.97,0,*6E
1508972841.5,22898,11.81,74074.8,-0.51,-29.45,-32.07,0,*61
1508972842.78,22899,11.88,74064.3,-0.51,-29.17,-31.91,0,*6B
1508972844.03,22900,11.81,74064.5,-0.51,-29.07,-31.61,0,*64
1508972845.32,22901,11.88,74056.8,-0.51,-28.59,-31.23,0,*69
1508972846.55,22902,11.88,74062.3,-0.49,-28.59,-31.17,0,*64
1508972847.78,22903,11.81,74064.0,-0.49,-28.47,-31.17,0,*6A
1508972849.03,22904,11.88,74074.5,-0.49,-28.75,-31.57,0,*68
1508972850.26,22905,11.88,74070.8,-0.49,-29.51,-32.13,0,*6D
1508972851.52,22906,11.81,74046.3,-0.47,-29.45,-32.19,0,*6F
1508972852.78,22907,11.88,74056.5,-0.47,-29.57,-32.19,0,*6D
1508972854.03,22908,11.88,74062.5,-0.47,-29.45,-31.91,0,*62
1508972855.28,22909,11.88,74072.8,-0.47,-29.23,-31.73,0,*6F
1508972856.55,22910,11.88,74076.8,-0.47,-29.13,-31.73,0,*64
1508972857.82,22911,11.88,74074.5,-0.47,-29.29,-31.85,0,*65
1508972859.08,22912,11.88,74060.5,-0.47,-29.61,-32.19,0,*6C
1508972860.33,22913,11.88,74056.8,-0.47,-29.73,-32.35,0,*60
1508972861.58,22914,11.81,74058.8,-0.47,-29.89,-32.39,0,*6E
1508972862.81,22915,11.88,74058.0,-0.47,-29.61,-32.23,0,*62
1508972864.07,22916,11.88,74062.0,-0.47,-29.61,-32.19,0,*68
1508972865.29,22917,11.81,74058.8,-0.47,-29.61,-32.23,0,*60
1508972866.52,22918,11.88,74068.8,-0.49,-29.83,-32.29,0,*67
1508972867.74,22919,11.88,74070.8,-0.49,-29.95,-32.39,0,*60
1508972868.99,22920,11.88,74068.8,-0.49,-30.17,-32.63,0,*67
1508972870.21,22921,11.88,74064.0,-0.49,-30.55,-33.15,0,*60
1508972871.46,22922,11.81,74062.0,-0.51,-30.33,-32.79,0,*61
1508972872.69,22923,11.81,74066.0,-0.49,-30.33,-32.85,0,*6A
1508972873.92,22924,11.81,74062.5,-0.49,-30.33,-32.79,0,*6E
1508972875.19,22925,11.88,74066.3,-0.51,-30.55,-32.97,0,*66
1508972876.44,22926,11.81,74060.0,-0.51,-30.73,-33.21,0,*6D
1508972877.67,22927,11.88,74062.3,-0.53,-30.77,-33.21,0,*6A
1508972878.89,22928,11.88,74062.3,-0.53,-30.77,-33.37,0,*62
1508972880.15,22929,11.88,74064.8,-0.55,-30.77,-33.37,0,*65
1508972881.42,22930,11.81,74058.0,-0.55,-30.89,-33.43,0,*6F
1508972882.67,22931,11.88,74056.3,-0.55,-31.05,-33.43,0,*6B
1508972883.92,22932,11.88,74056.5,-0.55,-31.11,-33.55,0,*6A
1508972885.15,22933,11.88,74064.5,-0.59,-31.33,-33.67,0,*66
1508972886.41,22934,11.88,74056.5,-0.59,-31.51,-33.67,0,*65
1508972887.64,22935,11.81,74064.3,-0.59,-31.45,-33.67,0,*61
1508972888.92,22936,11.88,74072.5,-0.63,-31.51,-33.73,0,*6B
1508972890.17,22937,11.88,74062.8,-0.63,-31.33,-33.89,0,*6B
1508972891.41,22938,11.81,74056.8,-0.63,-31.51,-33.95,0,*6D
1508972892.64,22939,11.88,74056.5,-0.63,-31.33,-33.83,0,*6F
1508972893.92,22940,11.88,74058.8,-0.63,-31.23,-33.77,0,*6B
1508972895.12,22941,11.88,74058.5,-0.69,-31.45,-33.95,0,*6C
1508972896.34,22942,11.81,74058.0,-0.69,-31.29,-33.77,0,*69
1508972897.59,22943,11.88,74060.5,-0.69,-31.11,-33.61,0,*64